Location: Gruszów
(50.2631°N, 20.2754°E)
Time: 15:06:19
(UTC+00:00)

Daily predictions for brighter satellites

Satellite Brightness Start Highest point End
(mag) Time Altitude Azimuth Time Altitude Azimuth Time Altitude Azimuth
Cosmos 676 Rocket 4.2 19:28:05 10° S 19:33:17 58° ESE 19:38:30 10° NNE
SeaSat 1 2.6 19:29:06 10° SSE 19:34:01 77° WSW 19:38:57 10° NNW
Cosmos 2278 3.8 19:28:55 10° NNW 19:34:41 89° NE 19:40:24 10° SSE
Cosmos 1190 Rocket 4.1 19:31:39 10° SSW 19:36:58 87° WNW 19:42:19 10° NNE
USA 234 3.3 19:30:53 10° ENE 19:37:20 57° SE 19:43:45 10° SW
MOS 1 Rocket 3.8 19:36:01 10° SSE 19:41:22 67° ENE 19:46:38 10° N
Cosmos 1707 2.7 19:38:45 10° SSW 19:42:21 78° W 19:45:59 10° N
Cosmos 2237 4.3 19:42:17 10° NNW 19:48:03 83° WSW 19:53:46 10° SSE
Meteor 2-10 Rocket 3.9 19:44:00 10° N 19:49:37 61° ENE 19:54:58 10° SSE
Cosmos 1400 Rocket 3.0 19:47:47 10° S 19:51:33 48° E 19:55:17 10° NNE
Cosmos 2219 Rocket 3.4 19:46:36 10° NNW 19:51:44 33° NE 19:56:50 10° ESE
SL-4 R/B 2.0 19:47:56 10° W 19:51:46 82° N 19:55:52 10° ENE
Cosmos 1455 4.4 19:51:40 10° NE 19:53:03 12° ENE 19:54:25 10° E
Cosmos 841 Rocket 3.6 19:50:39 10° NNW 19:55:57 88° ENE 20:01:14 10° SSE
SPOT 5 3.8 19:52:44 10° SSW 19:56:45 39° W 20:00:54 10° NNW
Landsat 5 4.3 19:54:36 10° NNE 19:58:12 32° E 20:01:53 10° SSE
ERS-1 Rocket 3.3 19:53:18 10° S 19:58:17 64° WSW 20:03:18 10° NNW
Orbus 7S? 4.2 19:53:46 10° WSW 19:58:45 52° NNW 20:01:39 10° NE
Cosmos 1707 Rocket 4.4 19:54:47 10° SSE 19:58:50 36° E 20:02:54 10° NNE
S3M 4.1 19:56:44 10° N 20:03:10 86° W 20:09:28 10° S
ATLAS CENTAUR R/B 2.3 20:00:30 10° SSE 20:03:11 21° ESE 20:05:56 10° ENE
SJ 16-02 2.8 20:02:46 12° SE 20:05:33 20° E 20:08:44 10° NE
Spot 2 Rocket 3.7 20:00:36 10° S 20:05:39 73° WSW 20:10:46 10° NNW
ARIANE 5 R/B 4.3 20:02:27 10° ESE 20:05:47 22° ENE 20:09:07 10° N
Okean 3 4.5 20:05:33 12° SSE 20:08:45 29° E 20:12:22 10° NNE
Cosmos 1953 3.9 20:06:34 10° NNE 20:09:33 21° ENE 20:12:24 10° ESE
Meteor 1-15 Rocket 4.4 20:04:42 10° NNW 20:10:16 75° W 20:15:50 10° S
Meteor 1-4 Rocket 4.0 20:09:43 13° ESE 20:11:07 16° E 20:13:06 10° NE
SL-27 R/B 3.2 20:10:27 15° SSE 20:11:56 23° ESE 20:14:13 10° NE
Aureole 3 4.4 20:09:43 13° SSE 20:12:43 32° E 20:16:55 10° NNE
Cosmos 1655 Rocket 4.1 20:07:34 10° S 20:13:54 68° E 20:20:16 10° NNE
Meteor 1-23 Rocket 4.3 20:08:56 10° S 20:14:34 74° E 20:20:18 10° NNE
Cosmos 2360 Rocket 2.3 20:10:03 10° NNW 20:15:46 75° ENE 20:20:47 13° SE
SL-08 ROCKET BODY 4.5 20:11:37 10° S 20:17:46 89° WNW 20:23:51 10° N
ATLAS 2AS CENTAUR R/B 2.7 20:11:00 10° NW 20:17:56 81° NE 20:24:07 12° SE
Spot 1 4.4 20:13:49 10° NNE 20:18:14 57° ESE 20:22:52 10° S
Cosmos 1733 Rocket 3.1 20:14:17 10° N 20:18:41 70° ENE 20:22:29 14° SSE
Cosmos 2266 Rocket 4.2 20:12:26 10° S 20:18:46 83° W 20:25:13 10° N
Cosmos 1300 2.5 20:16:28 10° N 20:20:03 88° E 20:23:03 14° S
Cosmos 2333 Rocket 2.3 20:18:23 10° NNW 20:24:10 80° ENE 20:29:07 14° SSE
SL-16 R/B 2.8 20:19:12 10° NW 20:24:41 52° WSW 20:29:51 12° S
H-2A R/B 4.4 20:23:33 10° ESE 20:26:45 21° ENE 20:29:57 10° NNE
Ariane Rocket 3.8 20:25:26 10° S 20:30:21 48° W 20:35:18 10° NNW
Cosmos 2082 Rocket 4.0 20:25:41 10° WSW 20:30:53 35° NW 20:36:05 10° NNE
Atlas Centaur 2 4.4 20:26:36 10° SW 20:31:25 17° S 20:34:35 13° SSE
Cosmos 807 4.3 20:29:19 15° S 20:32:02 62° E 20:35:01 10° NNE
Cosmos 2228 Rocket 3.1 20:28:24 10° S 20:32:57 86° E 20:37:34 10° N
SL-14 R/B 3.2 20:29:40 10° S 20:33:27 87° W 20:37:17 10° N
MetOp-A 4.1 20:29:06 14° SSE 20:33:40 87° WSW 20:38:58 10° NNW
RESURS DK-1 3.0 20:32:25 10° NW 20:36:20 46° WSW 20:39:23 15° S
Okean 1-7 3.7 20:36:48 17° SSE 20:39:40 38° E 20:43:42 10° NNE
Cosmos 1833 4.4 20:34:49 10° S 20:40:13 49° ESE 20:45:38 10° NE
Cosmos 1850 Rocket 4.0 20:37:24 10° SSW 20:42:38 84° ESE 20:47:52 10° NNE
Cosmos 1346 Rocket 3.0 20:39:38 10° NNW 20:43:29 61° W 20:46:26 16° S
Terra 3.4 20:40:44 10° SSW 20:44:48 28° W 20:48:54 10° NW
USA 281 3.4 20:42:02 15° SE 20:47:39 73° ENE 20:54:13 10° NNW
Meteor 1-16 Rocket 4.4 20:42:24 10° NNW 20:48:21 84° ENE 20:53:04 17° SSE
Cosmos 2237 Rocket 4.1 20:44:12 10° NNW 20:48:39 23° NE 20:53:04 10° E
Cosmos 2322 4.4 20:43:55 10° NNW 20:49:25 48° NE 20:54:15 13° SE
Timation 1 Rocket 4.5 20:45:30 10° SW 20:51:27 80° WNW 20:57:27 10° NNE
Cosmos 1242 Rocket 3.6 20:52:09 18° ESE 20:52:42 19° E 20:54:46 10° NE
OPS 8737 4.0 20:50:57 10° NW 20:53:53 81° NE 20:55:36 23° SE
EXPRESS MD2 1.7 20:52:41 10° WSW 20:55:04 73° S 20:56:56 13° E
Cosmos 2333 4.3 20:49:38 10° NNW 20:55:26 80° WSW 20:59:44 19° SSE
ALOS 2 4.2 20:55:20 12° ESE 20:58:31 26° ENE 21:02:09 10° N
Cosmos 1741 Rocket 4.2 20:56:35 10° SSW 21:01:51 74° WNW 21:07:11 10° NNE
CZ-2C R/B 3.8 20:58:19 10° NNE 21:02:40 54° E 21:05:28 21° S
Cosmos 968 Rocket 3.4 20:59:48 10° SSW 21:04:56 90° ESE 21:10:11 10° NNE
Cosmos 2322 Rocket 3.1 21:03:13 10° NW 21:08:26 39° WSW 21:12:36 15° S
Cosmos 1814 Rocket 4.2 21:03:25 10° NNW 21:08:40 66° WSW 21:12:20 20° S
Cosmos 1356 Rocket 4.4 21:06:39 10° SW 21:10:40 44° WNW 21:14:44 10° N
DNEPR-1 R/B 4.4 21:04:21 10° NW 21:11:15 79° SW 21:15:13 20° SSE
Spot 4 4.4 21:10:07 19° SE 21:13:20 48° ENE 21:17:59 10° N
Cosmos 1703 Rocket 3.8 21:11:40 22° SSE 21:14:20 58° E 21:18:43 10° NNE
Cosmos 1862 Rocket 4.3 21:11:25 10° SSW 21:15:40 49° WNW 21:20:00 10° N
Cosmos 2297 Rocket 4.0 21:16:08 12° ESE 21:18:13 15° E 21:21:17 10° ENE
USA 234 3.7 21:13:59 10° ENE 21:20:28 68° NNW 21:26:57 10° WSW
Cosmos 1932 4.5 21:14:58 10° SSW 21:21:14 66° SE 21:27:27 10° NE
Cosmos 2208 Rocket 4.3 21:16:43 10° NNW 21:21:53 58° ENE 21:25:27 19° SE
Okean 2 3.3 21:19:14 21° SSW 21:21:53 82° WNW 21:25:55 10° N
PSLV R/B 3.9 21:20:22 10° NNE 21:24:21 65° ESE 21:26:30 26° S
BREEZE-M DEB (TANK) 3.8 21:08:42 10° W 21:24:57 85° S 21:29:02 10° E
Cosmos 1455 2.2 21:24:25 10° NNW 21:27:53 62° W 21:29:35 27° S
COSMOS 2428 2.8 21:24:01 10° NNW 21:29:44 73° ENE 21:33:47 20° SE
SL-4 R/B 2.1 21:26:43 10° WNW 21:30:42 78° N 21:34:56 10° E
COSMOS 2455 3.9 21:29:10 21° SSE 21:31:47 28° ESE 21:36:49 10° NE
Cosmos 2219 Rocket 2.5 21:30:26 10° NW 21:35:58 55° WSW 21:39:27 23° S
ATLAS CENTAUR R/B 2.1 21:37:10 10° WSW 21:40:34 45° NW 21:44:05 10° NNE
ARIANE 5 R/B 3.1 21:39:26 23° SSW 21:41:53 49° W 21:46:06 10° NNW
Cosmos 1315 Rocket 3.5 21:39:54 17° SW 21:42:45 50° WNW 21:46:41 10° N
SJ 16-02 2.1 21:39:28 11° SW 21:43:33 50° WNW 21:47:48 10° NNE
Meteor 1-4 Rocket 3.9 21:41:42 13° SW 21:43:46 26° WNW 21:46:24 10° N
Cosmos 1953 3.3 21:41:57 10° NNW 21:45:30 36° W 21:47:31 21° SSW
Cosmos 1745 Rocket 4.0 21:45:23 21° S 21:49:46 82° E 21:56:10 10° N
Cosmos 1241 Rocket 4.4 21:43:38 10° SW 21:49:50 87° NW 21:56:08 10° NE
Nadezhda 1 Rocket 4.2 21:51:12 10° NNW 21:57:29 69° W 22:01:33 23° S
Cosmos 2360 Rocket 3.9 21:55:01 10° NW 21:59:08 21° W 22:02:32 13° SW
H-2A R/B 2.9 21:59:14 27° SSW 22:01:22 54° W 22:05:34 10° NNW
GP-B 4.0 21:57:29 10° N 22:01:40 43° W 22:04:27 19° SW
Cosmos 1486 Rocket 4.3 22:01:40 27° S 22:04:18 53° ESE 22:09:23 10° NNE
Cosmos 2333 Rocket 4.0 22:03:44 10° NW 22:07:47 20° W 22:11:07 13° SW
ATLAS 2AS CENTAUR R/B 3.9 22:02:39 10° WNW 22:08:08 27° WSW 22:11:32 18° SSW
Cosmos 1782 Rocket 4.1 22:07:13 10° NNW 22:11:23 47° W 22:13:29 26° SSW
Cosmos 1825 3.8 22:13:44 16° ESE 22:14:43 18° E 22:17:10 10° NE
BREEZE-M DEB (TANK) 3.9 22:11:57 10° W 22:15:22 84° S 22:26:35 10° E
Cosmos 1408 2.6 22:22:39 36° SW 22:23:30 50° WNW 22:26:26 10° N
Cosmos 1242 Rocket 4.2 22:23:20 14° WSW 22:24:39 19° WNW 22:26:46 10° NNW
SL-16 R/B 3.7 22:19:51 10° NNW 22:24:58 33° NE 22:30:04 10° ESE
BREEZE-M DEB (TANK) 2.0 22:22:25 10° WNW 22:25:27 52° N 22:27:24 10° E
BlueWalker 3 2.0 22:24:28 37° SSW 22:25:30 48° SSE 22:29:08 10° ENE
Cosmos 405 Rocket 2.7 22:24:40 10° N 22:28:25 71° ENE 22:29:56 34° SSE
Cosmos 2151 Rocket 3.8 22:25:41 10° N 22:30:04 61° ENE 22:32:18 27° SSE
USA 281 4.4 22:28:55 17° SSW 22:32:41 28° WSW 22:38:12 10° NW
Cosmos 546 4.5 22:29:17 10° W 22:33:09 77° SSW 22:37:01 10° ESE
Meteor 1-24 Rocket 3.7 22:30:01 26° S 22:33:27 81° E 22:39:08 10° NNE
Cosmos 2237 Rocket 2.2 22:27:48 10° NNW 22:33:32 88° ENE 22:37:15 22° SSE
H-2A R/B 2.4 22:29:26 10° NNE 22:33:37 52° E 22:35:22 31° SSE
ALOS 2 3.3 22:32:43 26° SSW 22:34:40 42° W 22:38:52 10° NNW
Okean 2 Rocket 3.3 22:32:42 10° N 22:37:09 66° ENE 22:39:28 27° SSE
NOSS 8 (E) 4.3 22:35:35 28° SW 22:37:20 90° SE 22:40:26 10° NE
Cosmos 371 Rocket 3.2 22:38:27 27° SSW 22:41:04 88° ESE 22:45:55 10° NNE
Cosmos 2227 Rocket 3.1 22:38:36 23° SSE 22:41:16 34° ESE 22:46:19 10° NE
CZ-4C R/B 1.9 22:42:23 28° SSW 22:44:47 64° SE 22:50:26 10° NE
Cosmos 1703 3.5 22:44:41 30° SW 22:46:13 54° WNW 22:49:52 10° N
BREEZE-M DEB (TANK) 3.3 22:45:04 30° SW 22:46:21 58° SSE 22:52:26 10° E
Cosmos 1980 3.7 22:40:42 10° NNW 22:46:21 73° WSW 22:49:45 25° SSE
Cosmos 1709 Rocket 4.5 22:45:07 20° SSW 22:49:36 57° WNW 22:55:53 10° N
Nadezhda 3 Rocket 4.5 22:45:01 10° N 22:51:12 55° ENE 22:55:52 18° SSE
Cosmos 1674 Rocket 3.6 22:49:36 31° S 22:51:35 66° E 22:55:55 10° NNE
Cosmos 2084 Rocket 4.2 22:51:58 29° SSE 22:53:06 35° SE 22:56:54 10° ENE
Cosmos 1378 Rocket 3.5 22:51:43 32° S 22:53:43 82° E 22:58:08 10° NNE
Cosmos 2221 Rocket 3.7 22:52:51 30° S 22:54:57 66° E 22:59:23 10° NNE
NOSS 0 Rocket 4.5 22:49:36 10° NW 22:55:29 45° WSW 22:58:44 25° SSW
Sich 1 Rocket 3.5 22:54:51 10° NNW 22:59:16 77° W 23:01:19 31° S
Cosmos 2184 Rocket 4.2 22:57:04 24° S 23:01:02 69° E 23:07:24 10° NNE
Cosmos 2297 Rocket 2.2 22:57:54 25° SSW 23:01:21 83° ESE 23:07:02 10° NNE
Meteor 2-5 Rocket 4.1 22:57:47 22° SSW 23:01:37 65° WNW 23:07:27 10° N
Cosmos 2219 4.5 22:59:15 18° SSE 23:02:07 28° ESE 23:06:50 10° NE
USA 234 4.2 22:56:48 10° ENE 23:03:03 50° N 23:09:19 10° WNW
GEOS 3 Rocket 3.6 22:58:07 10° NE 23:03:17 64° SE 23:06:13 25° SSW
Cosmos 1025 Rocket 4.0 23:01:49 23° SE 23:04:00 38° E 23:08:00 10° NNE
Cosmos 1892 2.4 23:06:43 39° S 23:07:56 90° NNW 23:11:28 10° N
SL-4 R/B 2.2 23:05:27 10° WNW 23:09:26 48° SSW 23:12:03 21° SE
COSMOS 2428 4.2 23:09:09 10° NW 23:13:24 22° WSW 23:15:45 17° SW
CENTAUR R/B 3.1 23:12:45 24° S 23:15:48 42° ESE 23:22:15 10° NE
COSMOS 2455 3.1 23:12:16 15° SW 23:17:17 67° NW 23:23:20 10° NNE
Cosmos 2154 Rocket 4.1 23:13:33 23° S 23:17:33 74° E 23:23:50 10° NNE
Cosmos 1538 Rocket 4.1 23:13:51 10° NNW 23:19:04 74° ENE 23:23:15 16° SSE
ATLAS CENTAUR R/B 4.1 23:17:20 10° NW 23:19:07 13° NNW 23:20:57 10° N
Cosmos 1503 Rocket 4.3 23:15:43 21° SW 23:19:17 64° WNW 23:24:35 10° NNE
Aureole 1 Rocket 4.3 23:18:43 18° SE 23:20:13 24° E 23:23:34 10° NE
Cosmos 1777 Rocket 4.2 23:18:39 23° SW 23:22:01 71° WNW 23:27:19 10° NNE
ADEOS II 4.5 23:30:08 10° ENE 23:32:27 13° E 23:34:44 10° ESE
Cosmos 332 Rocket 3.8 23:31:18 25° SSW 23:34:11 82° WNW 23:39:06 10° NNE
Cosmos 2263 Rocket 3.1 23:33:49 19° SSE 23:37:10 36° ESE 23:42:13 10° NE
Okean 1 Rocket 3.6 23:36:52 10° NNW 23:41:02 45° W 23:43:06 26° SSW
Resurs 1-4 Rocket 3.8 23:38:35 10° NE 23:42:47 24° E 23:46:59 10° SE
Cosmos 1825 3.1 23:47:12 22° WSW 23:48:42 32° WNW 23:51:49 10° N
Helios 1A Rocket 2.6 23:46:37 25° SSE 23:48:46 84° WSW 23:52:36 10° NNW
